This is the latest recevied weather packets stored in our database for station/object DL5RDP-9. If no packets are shown the sender has not sent any weather packets the latest 1 day(s).
| Time | Temp. | Humidity | Pressure | Rain* | Wind** | Luminosity | Snow |
|---|---|---|---|---|---|---|---|
| 1778080458 | 26.11° C | 36% | 1010.4 hPa | - | - | - | - |
| 1778077757 | 26.11° C | 34% | 1011.1 hPa | - | - | - | - |
| 1778075057 | 27.22° C | 31% | 1009.9 hPa | - | - | - | - |
| 1778074157 | 26.11° C | 33% | 1009.5 hPa | - | - | - | - |
| 1778073256 | 26.67° C | 32% | 1009.4 hPa | - | - | - | - |
| 1778072356 | 26.67° C | 32% | 1009.8 hPa | - | - | - | - |
| 1778067855 | 26.67° C | 31% | 1010.4 hPa | - | - | - | - |
| 1778066051 | 26.67° C | 32% | 1010.7 hPa | - | - | - | - |
| 1778065151 | 26.67° C | 32% | 1011 hPa | - | - | - | - |
| 1778064251 | 26.67° C | 32% | 1011.1 hPa | - | - | - | - |
| 1778063351 | 26.67° C | 32% | 1011.2 hPa | - | - | - | - |
| 1778058850 | 26.67° C | 31% | 1011.5 hPa | - | - | - | - |
| 1778057950 | 26.11° C | 32% | 1011.5 hPa | - | - | - | - |
| 1778054349 | 26.11° C | 32% | 1011.6 hPa | - | - | - | - |
| 1778053449 | 26.67° C | 32% | 1011.7 hPa | - | - | - | - |
| 1778052549 | 26.11° C | 32% | 1011.9 hPa | - | - | - | - |
| 1778051649 | 26.11° C | 32% | 1012 hPa | - | - | - | - |
| 1778050749 | 26.11° C | 32% | 1012 hPa | - | - | - | - |
| 1778046247 | 26.11° C | 32% | 1012.3 hPa | - | - | - | - |
| 1778045347 | 26.11° C | 32% | 1012.3 hPa | - | - | - | - |
| 1778044447 | 26.11° C | 33% | 1012.4 hPa | - | - | - | - |
| 1778043547 | 26.11° C | 32% | 1012.4 hPa | - | - | - | - |
| 1778042685 | 26.11° C | 33% | 1012.4 hPa | - | - | - | - |
| 1778042647 | 26.11° C | 33% | 1012.4 hPa | - | - | - | - |
| 1778041747 | 26.11° C | 32% | 1012.4 hPa | - | - | - | - |
* Rain since midnight (hover to see other rain measurements)
** Current wind speed in m/s (hover to see current wind gust speed)